Location: ??????
(41.3164°N, 22.6615°E)
Time: 14:26:01
(UTC+00:00)

H-2A R/B - Pass Details

Date: 28 May 2022
Orbit: 576 x 653 km, 98.5° (Epoch: 30 June)

Event Time Altitude Azimuth Distance (km) Brightness Sun altitude
Rises 19:36:33 0° 358° (N) 2,798 6.3 -15.8°
Reaches altitude 10° 19:39:06 10° 342° (NNW) 1,896 5.6 -16.1°
Maximum altitude 19:42:10 21° 294° (WNW) 1,330 4.6 -16.5°
Drops below altitude 10° 19:45:15 10° 245° (WSW) 1,900 4.7 -16.8°
Sets 19:47:48 0° 229° (SW) 2,804 5.4 -17.1°
